Flag for Austria Weather past 2 weeks in Linz, Upper Austria, Austria

Now
77 °F

Passing clouds.


Feels Like: 79 °F
Forecast: 55 / 82 °F
Wind: 8 mph from East

Location: Linz / Hoersching-Flughafen

Current Time: Jul 25, 2014 at 8:59:15 PM

Latest Report: Jul 25, 2014 at 7:50 PM


Visibility: N/A

Pressure: 29.89 "Hg

Humidity: 51%

Dew point: 57 °F

Location of LinzLocation

Historic Weather in Linz — Graph

°F

Linz temperature yesterday

Maximum temperature yesterday: 79 °F (at 3:20 PM)
Minimum temperature yesterday: 52 °F (at 5:20 AM)
Average temperature yesterday: 66 °F

Past Weeks' High & Low Weather Summary

 TemperatureHumidityPressure
High95 °F (Jul 20, 4:50 PM)100% (Jul 14, 4:20 AM)30.18 "Hg (Jul 14, 4:20 AM)
Low52 °F (Jul 24, 5:20 AM)23% (Jul 20, 4:50 PM)29.77 "Hg (Jul 20, 4:20 PM)
Average68 °F73%29.96 "Hg
* Reported Jul 10 7:20 PM — Jul 25 7:50 PM, Linz, Weather by CustomWeather, © 2014

Note: Actual official high and low records may vary slightly from our data, if they occured in-between our weather recording intervals... More about our weather records

Advertising

Linz weather history for previous 24 hours

 ConditionsComfort  
Time TempWeatherWind HumidityBarometerVisibility
7:50 PM
Jul 25
77 °FPassing clouds.8 mph51%29.89 "HgN/A
7:20 PM77 °FPassing clouds.5 mph47%29.89 "HgN/A
6:50 PM79 °FPassing clouds.9 mph45%29.89 "HgN/A
6:20 PM79 °FPassing clouds.7 mph48%29.89 "HgN/A
5:50 PM79 °FPassing clouds.5 mph42%29.89 "HgN/A
5:20 PM79 °FPassing clouds.7 mph45%29.89 "HgN/A
4:50 PM81 °FPassing clouds.5 mph42%29.89 "HgN/A
4:20 PM81 °FPassing clouds.3 mph39%29.92 "HgN/A
3:50 PM81 °FPassing clouds.3 mph39%29.89 "HgN/A
3:20 PM81 °FPassing clouds.3 mph37%29.92 "HgN/A
2:50 PM81 °FPassing clouds.2 mph42%29.92 "HgN/A
2:20 PM81 °FPassing clouds.2 mph39%29.92 "HgN/A
1:50 PM79 °FPassing clouds.2 mph42%29.92 "HgN/A
1:20 PM79 °FPassing clouds.3 mph54%29.92 "HgN/A
12:50 PM77 °FPassing clouds.2 mph54%29.95 "HgN/A
12:20 PM75 °FPassing clouds.5 mph57%29.95 "HgN/A
11:50 AM73 °FPassing clouds.3 mph61%29.95 "HgN/A
11:20 AM73 °FPassing clouds.5 mph61%29.95 "HgN/A
10:50 AM72 °FPassing clouds.3 mph61%29.95 "HgN/A
10:20 AM70 °FSunny.2 mph69%29.95 "Hg10 mi
9:50 AM70 °FSunny.2 mph64%29.95 "Hg10 mi
9:20 AM68 °FSunny.1 mph73%29.95 "Hg10 mi
8:50 AM66 °FSunny.1 mph78%29.95 "Hg10 mi
8:20 AM64 °FSunny.1 mph78%29.95 "Hg10 mi
7:50 AM63 °FSunny.2 mph83%29.95 "Hg10 mi
7:20 AM63 °FSunny.1 mph88%29.95 "Hg10 mi
6:50 AM61 °FSunny.1 mph94%29.92 "Hg10 mi
6:20 AM61 °FClear.2 mph88%29.92 "Hg10 mi
5:50 AM61 °FClear.1 mph88%29.92 "Hg10 mi
5:20 AM61 °FClear.3 mph88%29.92 "Hg10 mi
4:50 AM61 °FClear.5 mph88%29.92 "Hg10 mi
4:20 AM61 °FClear.1 mph88%29.92 "Hg10 mi
3:50 AM61 °FClear.2 mph88%29.92 "Hg10 mi
3:20 AM61 °FClear.1 mph88%29.92 "Hg10 mi
2:50 AM61 °FClear.1 mph88%29.92 "Hg10 mi
2:20 AM61 °FClear.1 mph88%29.92 "Hg10 mi
1:50 AM63 °FClear.1 mph83%29.92 "Hg10 mi
1:20 AM63 °FClear.2 mph83%29.92 "Hg10 mi
12:50 AM64 °FClear.1 mph73%29.92 "Hg10 mi
12:20 AM64 °FClear.1 mph78%29.92 "Hg10 mi
11:50 PM
Jul 24
68 °FClear.2 mph64%29.92 "Hg10 mi
11:20 PM66 °FClear.3 mph73%29.92 "Hg10 mi
10:50 PM68 °FClear.6 mph64%29.89 "Hg10 mi
10:20 PM68 °FPassing clouds.7 mph64%29.89 "HgN/A
9:50 PM68 °FPassing clouds.7 mph64%29.89 "HgN/A
9:20 PM72 °FScattered clouds.6 mph57%29.89 "HgN/A
8:50 PM73 °FScattered clouds.6 mph53%29.86 "HgN/A
8:20 PM73 °FScattered clouds.3 mph57%29.86 "HgN/A
Weather by CustomWeather, © 2014

See weather overviewHow to use our weather pages